Weather History for KEGI - September, 2013

Change the Weather History Date:

Tuesday, September 24, 2013

  Actual Average Record
Temperature  
Mean Temperature 76 °F -  
Max Temperature 83 °F - - ()
Min Temperature 71 °F - - ()
Cooling Degree Days 12    
Growing Degree Days 26 (Base 50)    
Moisture  
Dew Point 74 °F    
Average Humidity 96    
Maximum Humidity 100    
Minimum Humidity 80    
Precipitation  
Precipitation 1.46 in - - ()
Sea Level Pressure  
Sea Level Pressure 29.87 in    
Wind  
Wind Speed 4 mph (ENE)    
Max Wind Speed 17 mph    
Max Gust Speed 23 mph    
Visibility 8 miles    
Events Rain , Thunderstorm    
T = Trace of Precipitation, MM = Missing Value Source: NWS Daily Summary

Daily Weather History Graph

Daily Weather History Graph

Search for Another Location

Airport or City:

Trip Planner

Search our weather history database for the weather conditions in past years. The results will help you decide how hot, cold, wet, or windy it might be!

Date:

Astronomy

Sep. 24, 2013 Rise Set
Actual Time 6:35 AM CDT 6:39 PM CDT
Civil Twilight 6:11 AM CDT 7:03 PM CDT
Nautical Twilight 5:43 AM CDT 7:31 PM CDT
Astronomical Twilight 5:15 AM CDT 7:59 PM CDT
Moon 10:17 PM CDT (9/24) 11:29 AM CDT (9/24)
Length of Visible Light 12h 52m
Length of Day
12h 04m
Waning Gibbous, 73% of the Moon is Illuminated
Sep 24
Waning Gibbous
Sep 26
Last Quarter
Oct 4
New
Oct 11
First Quarter
Oct 18
Full

Hourly Weather History & Observations

Time (CDT) Temp. Heat Index Dew Point Humidity Pressure Visibility Wind Dir Wind Speed Gust Speed Precip Events Conditions
12:02 AM 75.2 °F - 73.4 °F 94% 29.90 in 2.5 mi East 5.8 mph - N/A Rain Heavy Rain
12:07 AM 75.2 °F - 73.4 °F 94% 29.90 in 1.8 mi Variable 4.6 mph - N/A Rain Heavy Rain
12:12 AM 75.2 °F - 75.2 °F 100% 29.90 in 2.5 mi NE 4.6 mph - N/A Rain Rain
12:17 AM 75.2 °F - 75.2 °F 100% 29.90 in 4.0 mi ENE 4.6 mph - N/A Rain Light Rain
12:22 AM 73.4 °F - 73.4 °F 100% 29.90 in 4.0 mi ENE 3.5 mph - N/A Rain Rain
12:30 AM 73.4 °F - 73.4 °F 100% 29.90 in 6.0 mi NE 4.6 mph - N/A Rain Light Rain
12:58 AM 74.1 °F - 74.1 °F 100% 29.91 in 10.0 mi NE 2.3 mph - 0.15 in   Light Drizzle
1:00 AM 73.4 °F - 73.4 °F 100% 29.90 in 10.0 mi NE 3.5 mph - N/A   Partly Cloudy
1:11 AM 73.4 °F - 73.4 °F 100% 29.90 in 10.0 mi Calm Calm - N/A   Light Drizzle
1:38 AM 73.4 °F - 73.4 °F 100% 29.90 in 10.0 mi East 3.5 mph - N/A   Scattered Clouds
1:53 AM 73.4 °F - 73.4 °F 100% 29.89 in 10.0 mi NE 2.3 mph - N/A   Mostly Cloudy
1:58 AM 74.1 °F - 74.1 °F 100% 29.91 in 10.0 mi NE 2.3 mph - 0.01 in   Mostly Cloudy
2:08 AM 73.4 °F - 73.4 °F 100% 29.89 in 10.0 mi NE 4.6 mph - N/A   Scattered Clouds
2:28 AM 73.4 °F - 73.4 °F 100% 29.89 in 10.0 mi NNE 3.5 mph - N/A   Mostly Cloudy
2:58 AM 73.4 °F - 73.4 °F 100% 29.91 in 10.0 mi NE 2.3 mph - N/A   Overcast
3:38 AM 75.2 °F - 75.2 °F 100% 29.89 in 10.0 mi ENE 3.5 mph - N/A   Overcast
3:48 AM 75.2 °F - 73.4 °F 94% 29.89 in 10.0 mi ENE 4.6 mph - N/A   Overcast
3:53 AM 75.2 °F - 73.4 °F 94% 29.89 in 10.0 mi ENE 4.6 mph - N/A   Overcast
3:58 AM 74.5 °F - 74.3 °F 99% 29.89 in 10.0 mi ENE 4.6 mph - N/A   Overcast
4:58 AM 74.7 °F - 74.3 °F 99% 29.91 in 10.0 mi East 3.5 mph - N/A   Overcast
5:35 AM 75.2 °F - 75.2 °F 100% 29.90 in 10.0 mi Variable 3.5 mph - N/A   Overcast
5:58 AM 74.7 °F - 74.3 °F 99% 29.91 in 10.0 mi ENE 3.5 mph - N/A   Overcast
6:18 AM 75.2 °F - 75.2 °F 100% 29.91 in 10.0 mi ENE 3.5 mph - N/A   Overcast
6:25 AM 75.2 °F - 75.2 °F 100% 29.91 in 10.0 mi ENE 3.5 mph - N/A   Overcast
6:58 AM 74.7 °F - 74.3 °F 99% 29.91 in 10.0 mi East 4.6 mph - N/A   Overcast
7:58 AM 75.0 °F - 74.7 °F 99% 29.93 in 10.0 mi ENE 4.6 mph - N/A   Overcast
8:55 AM 75.7 °F - 74.8 °F 97% 29.92 in 10.0 mi East 5.8 mph - N/A   Overcast
9:32 AM 77.0 °F - 75.2 °F 94% 29.91 in 10.0 mi ENE 8.1 mph - N/A   Overcast
9:55 AM 76.6 °F - 75.2 °F 95% 29.91 in 10.0 mi ENE 6.9 mph - N/A   Overcast
10:55 AM 77.4 °F - 74.8 °F 92% 29.91 in 10.0 mi ESE 3.5 mph - N/A   Light Drizzle
11:22 AM 78.8 °F - 75.2 °F 89% 29.91 in 10.0 mi Variable 2.3 mph - N/A   Overcast
11:44 AM 80.6 °F 86.2 °F 75.2 °F 84% 29.91 in 10.0 mi Variable 2.3 mph - N/A   Mostly Cloudy
11:55 AM 80.4 °F 86.0 °F 75.4 °F 85% 29.91 in 10.0 mi Variable 4.6 mph - N/A   Mostly Cloudy
12:35 PM 80.6 °F 86.2 °F 75.2 °F 84% 29.88 in 10.0 mi Variable 3.5 mph - N/A   Overcast
12:55 PM 81.3 °F 87.6 °F 75.2 °F 82% 29.88 in 10.0 mi SSE 2.3 mph - N/A   Overcast
1:55 PM 81.1 °F 87.8 °F 76.1 °F 85% 29.86 in 10.0 mi SSE 3.5 mph - N/A   Mostly Cloudy
2:25 PM 82.4 °F 90.9 °F 77.0 °F 84% 29.85 in 10.0 mi ENE 5.8 mph - N/A   Overcast
2:56 PM 82.2 °F 89.9 °F 76.1 °F 82% 29.83 in 10.0 mi ENE 6.9 mph - N/A   Overcast
3:55 PM 82.9 °F 91.2 °F 76.1 °F 80% 29.82 in 10.0 mi ENE 6.9 mph - N/A   Overcast
4:10 PM 82.4 °F 90.9 °F 77.0 °F 84% 29.83 in 10.0 mi East 4.6 mph - N/A   Overcast
4:44 PM 80.6 °F 87.1 °F 77.0 °F 89% 29.83 in 10.0 mi East 5.8 mph - N/A   Light Drizzle
4:55 PM 80.8 °F 86.9 °F 75.9 °F 85% 29.82 in 10.0 mi East 5.8 mph - 0.00 in   Light Drizzle
5:55 PM 78.8 °F - 76.1 °F 91% 29.82 in 7.0 mi East 5.8 mph - 0.00 in Rain Light Rain
6:08 PM 77.0 °F - 77.0 °F 100% 29.83 in 2.0 mi ESE 3.5 mph - N/A Rain Rain
6:12 PM 77.0 °F - 77.0 °F 100% 29.82 in 5.0 mi East 8.1 mph - N/A Rain Light Rain
6:41 PM 77.0 °F - 77.0 °F 100% 29.84 in 3.0 mi South 3.5 mph - N/A Rain , Thunderstorm Thunderstorms and Rain
6:48 PM 77.0 °F - 77.0 °F 100% 29.84 in 1.2 mi ENE 6.9 mph - N/A Rain , Thunderstorm Thunderstorms and Rain
6:55 PM 76.3 °F - 76.1 °F 99% 29.85 in 1.2 mi NE 4.6 mph - 0.39 in Rain , Thunderstorm Thunderstorms and Rain
7:33 PM 75.2 °F - 75.2 °F 100% 29.88 in 1.5 mi NW 17.3 mph 23.0 mph N/A Rain , Thunderstorm Heavy Thunderstorms and Rain
7:55 PM 72.5 °F - 72.0 °F 98% 29.86 in 1.5 mi NW 8.1 mph - 0.70 in Rain , Thunderstorm Heavy Thunderstorms and Rain
8:31 PM 71.6 °F - 71.6 °F 100% 29.79 in 3.0 mi ESE 3.5 mph - N/A Rain , Thunderstorm Light Thunderstorms and Rain
8:51 PM 71.6 °F - 71.6 °F 100% 29.82 in 7.0 mi South 8.1 mph - N/A Thunderstorm Thunderstorm
8:55 PM 71.6 °F - 71.2 °F 99% 29.83 in 7.0 mi South 6.9 mph - 0.20 in Thunderstorm Thunderstorm
9:29 PM 71.6 °F - 71.6 °F 100% 29.86 in 7.0 mi SSW 10.4 mph - N/A   Overcast
9:55 PM 72.0 °F - 71.6 °F 99% 29.85 in 7.0 mi WSW 3.5 mph - 0.00 in Rain Light Rain Showers
10:33 PM 71.6 °F - 71.6 °F 100% 29.82 in 7.0 mi East 1.2 mph - N/A   Overcast
10:55 PM 71.6 °F - 71.2 °F 99% 29.81 in 7.0 mi ENE 1.2 mph - 0.01 in   Overcast
11:55 PM 72.0 °F - 71.6 °F 99% 29.79 in 7.0 mi SW 1.2 mph - N/A   Mostly Cloudy